Wind_Speed
31 30 29 29 28 28 27 27 27 26 24 24 25 25 25 26 26 26 26 26 26 26 27 28 29 30 31 32 33 34 33 31 29 28 27 26 25 24 24 23 23 22 21 21 20 19 19 18 16 14 13 13 13 12 12 11 11 10 10 10 9 8 9 9 9 9 9 9 9
31 31 30 29 28 27 26 27 27 26 25 24 25 25 26 25 25 25 26 26 27 27 27 27 29 30 31 31 33 33 33 31 29 28 27 26 25 25 25 24 24 24 23 22 21 20 19 18 16 15 13 13 13 13 12 13 12 11 10 10 9 9 9 9 9 9 9 9 9
31 31 31 30 29 28 27 26 27 27 26 25 24 25 25 25 25 25 25 27 27 27 27 27 29 30 31 31 32 33 33 32 30 28 27 26 26 25 25 25 25 25 24 23 22 20 19 18 17 15 14 13 13 13 13 13 13 12 11 11 10 9 9 9 9 9 9 9 9
31 31 31 31 31 30 29 27 27 28 27 26 24 24 25 25 25 25 25 26 27 27 27 27 30 31 32 32 32 32 33 32 30 28 27 26 26 26 26 26 25 25 25 24 23 21 20 19 17 15 14 14 14 14 13 12 13 12 11 11 10 9 9 9 9 9 9 9 9
30 31 31 31 31 31 30 28 27 27 27 26 24 24 24 25 25 25 25 26 27 27 27 28 31 33 33 32 32 32 32 31 30 28 27 26 26 26 26 26 25 25 25 25 24 23 21 19 17 15 15 14 14 14 13 13 13 12 11 11 10 10 10 9 9 9 9 9 9
29 30 31 31 31 30 29 28 27 27 26 25 25 25 25 25 25 24 25 26 27 27 27 29 32 34 34 32 32 31 31 31 30 28 27 27 26 26 26 26 25 25 25 25 25 24 23 20 17 15 15 14 14 14 14 13 13 12 12 11 10 10 10 10 9 9 9 9 9
28 29 30 30 30 30 29 28 27 26 26 25 26 27 26 26 25 25 25 26 26 26 27 30 33 34 33 32 32 31 30 30 30 29 28 27 26 26 26 26 26 25 25 25 25 25 24 22 17 15 15 14 14 14 14 14 13 12 12 11 11 10 10 10 10 9 9 10 10
27 28 29 30 30 29 29 28 27 26 26 26 27 28 28 27 26 26 26 25 25 26 28 31 34 34 34 33 32 32 31 31 30 29 28 27 26 26 27 27 27 26 25 25 25 24 24 22 18 16 15 15 14 14 15 15 14 13 12 12 11 10 10 10 11 10 10 10 11
26 27 28 29 29 29 29 28 28 27 27 26 27 28 29 28 27 26 26 25 26 28 30 32 34 35 35 34 34 33 33 33 32 31 29 28 27 27 28 28 28 27 26 26 25 25 23 21 18 16 16 15 14 14 15 15 15 14 13 12 11 11 10 10 11 11 11 11 11
25 26 27 28 29 29 29 29 28 28 28 27 27 27 28 28 27 27 27 26 27 29 30 32 33 34 34 34 34 34 34 35 34 33 31 30 29 29 29 29 29 28 27 26 26 25 23 21 19 17 16 15 15 14 15 16 16 16 14 12 11 11 11 11 11 11 11 11 11
25 26 26 27 28 29 29 29 28 28 28 27 27 27 28 28 27 27 27 27 28 29 31 32 33 33 34 34 34 35 36 36 35 34 33 31 31 31 31 31 31 30 28 27 26 24 22 21 19 18 17 16 15 15 15 16 17 17 15 13 12 12 12 12 11 11 11 11 12
25 25 26 26 27 28 28 28 28 28 28 28 27 27 28 28 27 27 27 27 28 29 31 31 32 33 33 33 34 36 36 36 36 35 33 32 31 31 32 32 32 31 29 28 27 25 23 23 21 20 19 17 16 15 16 16 17 17 16 14 13 12 12 12 12 12 11 12 12
25 25 25 25 26 27 27 28 27 27 27 28 27 27 27 27 27 26 26 27 28 29 29 30 32 33 33 33 35 36 36 36 36 35 34 32 32 31 32 32 32 31 30 29 28 26 24 24 23 21 20 19 17 16 16 17 17 16 16 15 14 13 13 13 13 13 12 12 12
25 24 24 25 26 26 27 27 27 26 26 27 27 27 26 26 26 26 26 27 27 28 28 29 30 31 32 33 35 36 37 37 36 35 34 33 32 31 32 32 32 31 30 29 29 28 26 25 24 23 21 20 18 17 17 18 17 17 16 15 14 14 14 14 14 14 13 13 13
24 24 24 24 25 26 26 27 26 25 26 26 27 26 26 25 25 26 26 26 27 27 27 28 29 30 31 32 34 36 37 37 36 35 34 33 32 32 31 31 32 31 30 29 29 28 27 27 25 24 22 21 19 18 18 18 18 17 16 16 15 14 14 14 14 14 14 13 13
23 24 24 24 25 25 26 26 25 25 25 25 26 26 25 25 25 25 26 26 26 26 27 28 28 28 29 31 33 35 36 36 35 34 33 32 32 31 31 31 31 30 30 28 28 28 28 27 26 24 23 21 20 19 18 18 18 17 17 16 16 15 15 14 14 14 14 14 13
23 23 24 24 25 25 26 26 25 24 24 25 25 26 25 25 24 25 26 27 26 26 27 28 28 28 28 29 31 33 34 33 33 32 31 31 31 31 31 31 31 30 29 28 28 28 27 26 25 24 23 22 20 19 18 18 18 17 17 17 16 16 15 15 15 14 14 14 14
23 23 24 24 25 26 26 26 25 25 24 25 25 26 25 25 24 24 26 28 27 27 27 28 28 28 28 29 30 32 32 32 31 31 30 30 31 32 32 31 31 30 29 28 28 28 27 26 25 24 23 22 20 19 18 18 18 17 17 17 16 16 16 16 15 15 15 15 15
23 23 24 24 25 26 26 26 26 25 25 25 25 25 26 26 25 25 26 28 28 28 28 28 28 28 29 30 31 31 31 31 31 30 30 30 31 32 32 31 30 30 29 28 28 28 27 26 25 24 23 22 20 19 18 18 18 17 17 17 17 17 16 16 16 16 16 15 15
23 23 24 24 24 25 26 26 26 26 25 25 25 25 26 26 26 25 26 27 28 28 28 29 29 29 30 31 32 32 31 31 31 31 30 30 31 31 31 30 30 29 29 28 28 27 27 26 25 25 24 22 21 20 19 18 18 17 17 17 17 17 17 17 16 16 16 16 15
23 23 23 24 24 24 25 25 26 25 25 25 25 26 26 27 26 26 27 28 28 28 28 29 29 30 31 32 33 33 31 30 31 31 31 30 31 31 31 30 29 29 28 28 28 27 26 26 25 25 24 23 22 20 19 18 18 17 17 17 17 17 17 17 16 16 16 16 15
22 23 23 23 23 23 24 24 25 25 25 25 25 26 26 26 26 26 27 28 28 28 28 29 29 31 33 34 34 34 32 31 32 32 31 30 30 31 31 30 29 29 28 28 27 27 26 25 25 24 24 23 22 21 20 19 18 17 17 17 17 17 17 16 16 16 16 16 15
22 22 22 22 22 23 23 23 24 25 25 25 25 25 26 26 26 26 27 27 28 28 28 29 29 31 34 36 36 35 33 32 32 32 31 30 29 29 30 29 29 29 28 28 27 26 25 24 24 24 24 23 22 21 20 19 18 17 16 16 16 16 16 16 16 16 16 16 16
21 21 21 21 21 22 22 23 24 24 25 25 25 25 26 26 26 26 26 27 28 28 28 28 28 30 33 35 36 36 35 33 32 32 31 29 29 29 29 29 28 28 27 28 27 27 26 24 24 24 23 23 22 21 20 19 18 18 17 16 15 15 15 15 15 15 15 16 16
21 21 21 20 21 22 22 23 24 24 25 25 25 25 25 26 26 26 27 27 28 28 28 28 28 29 32 33 35 35 35 34 33 32 31 29 29 28 28 28 27 26 25 26 28 28 28 26 25 24 23 23 22 20 20 19 18 18 17 16 15 14 14 14 14 14 15 15 15
21 21 21 21 21 21 22 23 24 24 25 25 25 25 25 26 26 26 27 27 28 28 28 28 28 29 30 31 32 33 34 33 33 33 32 30 29 28 28 27 26 24 23 25 28 29 29 28 27 25 24 23 21 20 19 19 19 18 18 17 16 15 14 13 13 14 14 14 15
21 21 21 21 21 22 22 23 24 24 24 25 25 25 25 26 26 26 27 27 28 28 28 28 28 28 29 30 31 32 32 31 32 32 32 31 30 29 27 26 25 23 23 25 28 29 29 28 27 26 24 23 21 20 19 18 18 18 17 17 16 15 14 13 14 14 14 14 14
22 21 21 21 21 22 22 23 23 24 25 25 25 25 25 25 26 26 27 27 28 28 28 27 27 28 28 28 30 31 31 30 30 31 31 31 31 29 28 26 25 25 25 26 28 29 28 27 26 25 24 22 21 20 19 17 16 16 16 15 14 14 14 14 14 14 14 14 14
22 21 21 21 22 22 22 23 23 24 25 25 25 25 25 25 26 27 27 27 28 28 28 27 27 27 27 27 29 30 30 30 30 30 30 30 30 29 27 25 25 26 27 28 29 28 27 26 25 24 23 22 20 19 17 16 15 14 14 13 13 13 14 14 14 14 14 14 14
22 21 22 22 22 22 22 23 24 24 24 24 25 25 25 26 26 27 27 28 29 29 28 27 27 27 27 28 28 29 29 29 29 29 29 30 29 29 27 24 24 25 27 29 29 28 27 26 24 23 22 21 20 18 16 15 14 13 13 13 13 14 14 14 14 14 13 13 13
21 22 22 22 23 23 23 23 23 24 24 24 25 25 26 26 27 27 28 28 29 29 28 27 27 28 28 28 28 28 28 28 27 28 28 29 29 28 27 24 23 24 27 29 28 27 26 25 23 22 21 20 19 17 15 14 13 13 13 14 14 14 14 14 14 13 13 13 13
22 22 22 23 23 23 23 23 23 24 24 25 25 26 26 27 27 27 27 27 28 28 28 27 28 28 29 29 28 29 29 28 27 27 28 28 28 27 26 24 23 24 26 29 28 27 26 25 23 21 20 20 18 17 15 14 14 14 14 14 14 14 14 13 13 13 13 13 13
22 22 23 23 24 24 24 24 24 24 25 25 26 26 26 26 26 26 26 27 27 28 28 28 29 29 30 29 29 29 29 28 28 28 28 28 27 26 25 23 22 23 25 28 28 27 25 24 22 21 20 20 18 17 16 15 14 14 14 14 14 14 14 13 13 13 13 13 13
22 22 23 24 24 24 24 24 24 25 25 26 26 26 26 26 26 26 26 27 27 28 28 28 29 30 30 30 30 29 29 27 27 27 28 27 26 25 24 22 21 23 26 28 27 26 25 23 22 21 20 20 18 17 16 15 15 15 15 14 14 14 13 13 13 13 12 12 13
24 23 23 24 24 24 24 24 25 25 26 26 26 26 26 26 27 27 27 27 26 26 27 27 28 28 29 29 29 29 29 27 27 27 27 27 26 25 24 22 22 24 27 27 27 26 24 22 21 20 20 19 17 16 15 15 15 15 15 15 14 13 13 13 12 12 12 12 12
25 25 24 24 24 24 24 25 25 25 26 26 27 27 27 26 27 27 26 26 26 26 26 26 27 28 28 28 28 28 28 28 27 27 27 26 26 25 23 22 22 24 27 27 26 25 24 22 21 20 19 18 16 15 15 14 15 15 15 15 14 14 13 13 12 12 12 12 12
25 25 25 25 25 25 25 25 25 26 26 27 27 27 26 26 26 26 26 26 26 26 26 27 27 28 28 28 28 28 28 28 28 28 27 26 25 25 23 22 21 24 27 27 26 25 23 22 21 20 19 17 15 14 14 14 14 14 14 14 14 14 13 13 12 12 12 12 12
25 25 25 26 26 26 26 26 26 27 27 27 26 26 26 26 26 26 26 26 26 27 27 27 28 28 28 28 27 27 27 27 27 27 27 26 25 25 23 22 21 23 26 26 26 24 23 22 21 20 18 17 15 14 13 13 13 13 13 13 13 13 13 12 12 12 12 11 11
25 25 26 26 26 26 27 27 27 27 27 27 26 25 26 26 25 26 26 26 26 27 27 27 28 28 27 27 26 26 26 26 26 27 26 26 25 25 23 22 21 22 25 26 25 24 22 21 20 20 18 16 15 14 13 13 13 13 13 13 12 12 12 12 11 11 11 10 10
25 26 27 27 27 27 27 27 27 27 27 26 26 26 26 26 25 25 26 26 26 26 26 27 27 27 26 26 26 26 26 25 25 25 25 25 25 25 24 22 21 22 24 26 25 24 22 21 20 19 18 16 15 14 13 13 13 13 13 12 12 11 11 11 10 10 10 10 10
26 27 28 28 28 28 28 27 27 26 26 25 26 25 25 25 25 25 25 25 26 26 26 26 27 27 26 26 26 26 26 25 25 24 24 24 25 25 23 21 20 21 23 25 25 24 22 21 20 19 18 16 14 13 13 12 12 12 13 12 12 11 10 10 10 9 9 9 10
Wind_Direction
213 213 212 212 212 212 212 211 210 207 204 200 198 196 195 194 193 193 192 192 192 193 193 193 194 194 194 194 193 193 194 194 193 193 193 193 193 192 192 191 190 190 190 190 190 190 191 192 192 193 194 194 195 196 196 195 194 195 198 200 205 211 216 220 224 227 231 233 236
212 212 212 212 212 212 211 211 211 209 207 203 200 198 197 195 194 193 193 193 194 194 193 193 194 194 193 192 193 193 193 193 192 192 192 192 192 192 191 191 191 191 191 190 189 189 191 192 192 193 194 194 195 196 197 198 195 196 200 203 207 212 217 222 226 229 232 235 237
212 212 212 212 212 212 211 210 210 209 207 205 202 200 198 197 196 195 195 195 195 193 193 193 193 193 192 191 192 193 193 192 191 190 190 191 191 191 191 191 191 192 192 191 190 190 190 191 192 193 194 194 195 196 198 197 196 198 202 205 209 212 217 222 226 229 232 235 237
211 212 212 212 212 212 211 211 210 209 208 206 203 201 199 198 198 197 196 195 194 193 193 193 193 192 191 190 190 192 192 192 190 189 189 190 190 191 191 191 191 192 193 193 192 191 191 191 193 195 196 196 196 198 198 197 196 198 202 205 209 212 217 222 225 228 231 234 236
212 212 213 213 213 213 212 212 210 209 208 206 203 201 200 199 198 197 195 194 193 193 193 193 193 192 191 190 190 190 191 190 189 189 188 189 189 190 191 191 190 191 193 194 194 193 192 191 193 196 197 198 199 199 199 197 196 198 201 205 208 213 217 222 225 228 230 233 236
212 213 213 214 214 214 213 213 211 209 207 205 203 202 200 199 198 196 194 194 193 193 192 193 193 192 190 189 189 189 188 188 188 188 188 188 189 189 190 190 190 191 192 194 194 195 194 192 194 197 198 199 199 200 200 198 197 198 200 204 209 213 217 222 225 228 231 234 237
212 213 213 214 214 214 214 213 212 210 208 206 206 204 202 200 198 196 195 194 192 191 191 192 193 192 189 188 188 187 187 187 187 187 188 187 188 188 189 189 190 190 192 193 194 195 195 194 195 197 198 199 200 200 200 199 199 199 201 205 210 214 217 221 224 228 232 236 240
213 213 213 214 213 213 213 213 212 210 209 209 208 207 205 202 199 197 195 193 191 190 191 193 193 192 190 188 187 186 186 186 186 187 187 187 187 188 188 188 189 190 191 193 193 194 195 195 196 198 199 198 200 201 200 199 199 201 203 207 212 215 216 217 222 228 233 237 240
214 213 213 213 213 212 212 212 211 210 210 210 209 208 207 205 201 198 195 194 193 192 192 193 194 193 191 189 187 186 186 185 185 186 186 187 187 187 188 188 189 190 191 193 193 194 194 195 197 199 200 199 200 200 199 198 199 201 205 210 215 218 219 217 223 228 233 237 238
213 212 212 212 212 211 211 211 211 211 211 211 210 209 207 206 202 199 197 195 194 192 192 193 193 192 190 189 188 187 186 186 186 186 186 187 187 187 188 189 190 190 191 193 193 193 194 196 198 200 200 200 200 199 197 198 201 204 207 212 216 219 221 222 223 227 232 236 238
213 211 210 210 210 210 209 209 210 211 211 212 211 209 207 206 202 200 198 196 194 193 193 194 193 191 190 189 188 187 187 187 186 186 186 187 187 188 189 190 191 191 191 193 193 193 194 197 198 199 199 199 200 199 198 200 204 207 209 213 216 218 221 225 227 230 233 236 240
213 211 210 209 209 208 208 208 209 210 210 211 210 209 208 207 203 200 198 196 194 194 194 194 192 191 190 189 189 188 187 187 187 187 187 187 188 189 190 191 192 192 192 193 193 193 195 197 199 199 199 200 200 199 199 201 205 208 211 214 216 219 221 225 228 231 235 239 242
213 211 210 208 207 206 206 207 208 209 209 210 209 209 208 207 204 200 197 196 195 194 193 193 192 191 190 189 189 188 188 188 188 187 187 188 188 190 191 192 192 193 193 195 194 195 196 198 199 200 200 200 200 201 202 203 206 209 212 215 217 220 223 227 230 234 237 240 242
215 212 210 208 206 205 206 206 208 208 209 209 208 208 207 206 203 199 197 195 194 193 192 191 191 191 191 190 189 189 188 188 188 188 188 188 189 190 191 192 193 194 194 196 197 198 199 200 201 202 202 201 202 203 204 206 208 210 213 215 218 221 225 229 233 236 238 240 243
215 213 211 208 206 205 205 206 207 209 209 208 208 207 205 204 202 199 196 195 194 193 191 190 190 191 191 191 190 189 189 189 188 188 188 189 189 190 191 192 193 194 195 197 198 200 202 203 204 204 204 203 203 204 206 208 211 213 215 218 220 223 226 230 233 236 238 241 245
216 214 211 208 206 205 205 206 207 208 209 208 206 205 204 203 201 198 195 194 193 192 191 190 189 189 189 189 189 189 188 188 188 188 188 189 189 190 191 192 193 194 195 197 199 201 204 205 206 207 206 205 205 206 208 210 213 215 218 221 223 225 228 231 233 235 238 242 246
217 215 212 209 207 206 206 206 207 208 208 207 205 204 202 201 200 197 194 193 192 191 190 190 189 187 186 186 187 187 187 187 187 187 188 188 189 190 191 192 194 195 195 197 199 201 203 205 207 207 207 206 206 207 208 211 214 217 220 223 226 228 231 234 235 237 240 244 248
219 216 213 211 209 208 207 206 207 207 207 206 204 202 201 199 197 195 194 193 192 191 190 189 188 186 185 184 185 186 186 186 186 187 188 189 190 191 192 193 194 195 195 197 199 202 204 205 206 207 207 206 206 207 209 211 215 219 222 225 228 231 234 236 238 240 243 246 250
221 218 215 213 211 209 208 207 207 207 207 205 203 201 200 199 196 194 193 193 193 192 190 188 187 186 185 184 184 185 186 186 186 187 188 189 190 191 192 193 194 195 196 198 200 203 205 206 206 206 206 206 207 208 210 213 216 220 223 226 229 232 235 238 240 243 246 250 253
222 220 217 215 213 211 210 209 208 208 207 205 203 201 200 199 197 194 193 193 193 192 190 188 186 185 184 184 183 184 185 186 186 186 187 189 190 191 192 193 193 195 196 199 201 203 205 206 206 206 206 207 208 209 212 215 218 221 224 227 230 233 236 239 242 246 249 253 255
224 221 218 216 214 212 211 210 209 208 207 206 204 202 200 198 197 196 194 193 192 191 189 188 186 185 183 183 182 183 183 185 186 186 187 188 190 191 192 193 193 195 197 199 202 204 205 206 206 206 207 208 209 211 213 215 218 221 224 228 231 235 238 241 244 248 251 254 255
225 223 220 217 215 213 212 211 210 209 208 207 205 202 200 199 197 196 195 193 191 190 189 188 186 185 184 183 183 182 183 184 185 186 186 188 189 191 192 193 194 195 197 199 201 203 204 204 205 206 207 208 210 212 214 216 219 221 225 228 232 236 239 242 245 249 252 254 255
227 223 220 218 216 214 212 211 210 209 208 207 205 203 201 199 198 196 194 192 190 189 189 188 187 186 185 184 184 183 182 183 184 185 186 187 188 190 191 193 194 196 198 199 201 201 201 202 203 205 207 208 210 213 215 218 220 222 224 227 230 234 239 243 246 249 252 255 256
227 223 220 217 215 214 212 211 210 209 208 207 205 203 201 199 197 196 193 191 190 189 188 187 186 186 185 185 184 183 182 182 183 184 185 186 187 188 190 192 194 196 198 200 201 201 200 200 201 203 206 209 211 213 216 219 221 223 225 226 228 232 237 242 247 250 252 254 255
228 223 219 217 214 212 211 211 210 209 208 207 205 203 201 199 197 195 193 192 191 190 188 187 185 184 184 184 184 183 183 182 182 183 184 185 187 188 190 191 193 195 197 199 201 202 202 201 201 203 205 208 211 213 217 220 222 224 226 227 228 232 236 240 244 246 249 251 252
228 223 219 216 214 212 211 210 210 209 208 207 205 203 201 199 197 195 193 192 191 190 188 186 184 182 182 182 182 182 183 183 183 183 183 184 186 187 189 191 192 193 195 199 202 203 204 204 204 205 206 208 210 213 216 220 223 225 227 230 232 235 238 241 244 246 250 252 254
229 223 219 216 213 212 211 210 209 209 208 206 205 203 201 199 197 196 194 192 190 189 187 185 183 181 181 181 181 181 181 182 183 183 184 184 185 186 188 190 191 192 195 198 201 203 204 205 206 208 209 210 212 214 216 219 223 226 228 231 234 236 238 241 246 251 254 256 258
231 223 218 215 213 212 211 210 209 208 207 206 205 203 201 199 198 196 195 193 190 188 186 185 182 181 180 180 180 181 181 181 182 183 185 185 186 186 187 189 191 193 196 199 201 203 203 205 207 209 211 212 214 216 217 218 220 223 227 231 234 236 239 242 247 251 255 257 258
231 222 217 215 213 212 211 210 209 208 207 206 205 203 201 200 198 197 195 193 190 187 186 184 182 180 180 180 180 180 180 180 181 183 184 186 186 187 187 189 192 195 198 200 201 202 202 204 207 209 211 213 214 215 215 216 218 221 225 229 233 237 241 243 246 250 254 257 259
230 221 216 214 212 212 210 209 209 207 206 206 204 203 202 200 199 198 195 193 190 188 186 184 181 181 180 180 178 178 178 180 181 182 183 185 187 187 188 189 191 195 199 201 201 201 202 203 205 206 209 213 214 214 213 215 217 221 227 233 237 241 243 245 247 250 252 257 261
229 219 215 213 212 211 211 209 208 207 206 205 204 203 202 201 200 198 196 194 191 189 186 183 181 181 180 179 177 177 178 178 180 181 183 185 186 188 188 189 191 196 200 201 201 201 201 202 202 203 205 209 212 212 213 216 220 226 232 237 240 242 244 246 248 250 253 258 262
230 218 213 212 212 211 210 209 208 206 205 204 204 203 202 202 201 199 197 194 191 189 186 184 182 181 180 178 177 177 177 178 179 181 183 185 186 187 188 189 191 195 199 200 200 200 201 202 201 201 202 205 207 210 214 220 225 231 236 240 242 243 244 245 247 250 254 258 263
231 218 213 211 211 211 210 209 207 206 205 204 204 203 202 202 200 199 197 195 192 189 187 185 183 181 180 179 177 177 177 178 179 180 182 184 185 186 187 188 190 194 198 200 199 199 200 201 200 200 202 204 207 211 216 221 227 233 238 242 243 244 245 245 247 250 254 259 264
234 219 213 211 211 210 209 207 206 205 204 204 204 203 202 200 199 198 196 195 193 191 189 187 184 182 181 179 178 177 177 177 178 179 181 182 183 184 185 187 189 193 197 199 199 199 199 199 199 200 202 204 208 213 219 224 230 235 239 241 243 243 244 245 247 250 254 258 263
239 225 215 211 210 210 209 207 205 204 204 204 203 202 201 199 198 197 196 194 192 191 190 188 185 183 182 180 178 177 176 176 177 178 180 181 182 183 184 185 189 194 197 198 198 198 198 197 197 198 201 203 208 215 222 228 233 237 239 241 242 242 243 245 247 251 254 259 263
240 230 222 216 212 210 208 206 205 203 203 203 202 201 199 198 197 196 195 193 191 190 189 187 185 184 182 180 179 177 177 176 176 177 179 180 181 183 184 185 188 193 197 197 197 197 197 196 196 197 199 203 209 216 223 230 234 237 239 241 243 244 245 246 248 252 256 259 262
237 228 223 221 217 213 209 207 204 203 202 202 201 199 197 196 195 194 193 192 191 190 189 187 185 184 183 181 179 178 177 176 175 176 178 179 181 182 184 184 186 191 195 196 196 196 195 194 194 195 198 203 209 217 223 229 233 236 239 241 243 245 247 248 251 254 257 259 261
232 222 219 219 218 215 211 207 204 203 202 201 199 197 195 194 193 192 192 191 190 190 189 187 186 184 183 180 178 177 176 175 175 176 177 179 180 182 183 183 184 189 193 195 194 194 193 192 193 195 198 204 211 217 223 228 231 234 238 241 244 246 248 250 253 256 257 258 258
227 215 213 216 217 216 213 208 205 203 201 199 197 195 193 192 191 191 191 190 190 189 188 187 185 184 181 178 176 175 175 175 176 176 177 178 180 181 182 182 183 186 191 193 193 192 191 191 192 195 199 205 212 218 224 228 231 234 237 241 244 247 249 250 252 255 257 258 256
222 211 208 211 214 215 213 210 206 203 200 197 195 193 192 191 190 190 189 189 189 189 188 186 184 182 178 175 174 173 174 174 175 176 176 177 179 181 181 181 181 183 188 191 192 191 190 191 193 195 199 206 213 219 224 228 232 235 237 240 244 247 249 251 252 254 257 259 258
219 207 205 208 212 214 213 210 206 202 198 195 193 192 191 189 188 188 187 187 188 188 187 185 183 180 176 174 173 172 172 173 174 175 176 177 178 180 181 180 180 181 185 189 190 190 190 192 194 196 200 206 212 218 223 227 231 235 238 240 243 246 250 252 253 255 257 259 260
Height
740 741 742 744 745 746 747 748 749 750 751 751 752 753 755 756 757 758 760 761 763 765 766 768 770 771 774 776 778 780 782 784 786 789 791 792 794 796 797 799 800 802 803 805 806 807 809 810 811 812 812 813 814 814 815 816 816 817 817 818 819 819 820 820 821 821 821 822 822
737 739 740 742 743 744 745 746 747 748 749 750 751 752 753 754 755 756 758 759 761 762 764 766 768 770 771 774 776 778 780 782 785 787 789 791 792 794 796 797 799 800 801 803 804 806 807 808 809 810 811 811 812 813 814 814 815 815 816 817 817 818 819 819 820 820 820 821 821
735 736 738 740 741 742 743 744 745 746 747 748 749 750 751 752 753 755 756 757 759 761 763 764 766 767 770 772 774 776 778 780 783 785 787 789 791 792 794 795 797 798 800 801 802 804 805 806 808 809 809 810 811 811 812 813 813 814 815 816 816 817 817 818 818 819 819 819 820
733 735 736 737 738 739 740 741 742 744 745 747 748 749 750 751 752 753 754 756 757 759 761 762 763 765 768 770 772 774 776 778 781 783 785 787 789 791 792 794 795 797 798 800 801 802 804 805 806 807 808 809 809 810 811 811 812 813 814 814 815 816 816 817 817 817 818 818 818
731 732 733 735 736 737 738 740 741 742 744 745 746 747 748 749 750 751 753 754 756 757 758 760 761 763 766 768 770 772 774 777 779 781 783 785 787 789 791 792 794 795 796 798 799 801 802 804 805 806 806 807 808 809 809 810 811 811 812 813 814 814 815 816 816 816 816 817 817
729 730 731 733 734 736 737 738 740 741 742 743 744 745 746 747 748 750 751 752 753 755 757 758 760 761 764 766 768 770 773 775 777 779 781 783 785 787 789 791 792 793 795 796 798 799 801 802 803 804 805 806 806 807 808 809 809 810 811 811 812 813 814 814 815 815 815 816 816
727 728 730 731 733 734 736 737 738 739 741 741 742 743 744 745 746 748 749 750 752 754 756 756 758 760 762 764 766 769 771 773 776 777 780 781 784 785 787 789 790 792 793 795 796 798 799 801 802 803 804 804 805 806 806 807 808 809 809 810 811 811 812 813 813 814 814 814 815
725 726 728 729 731 732 734 735 736 738 739 740 740 741 742 744 745 746 748 750 751 752 753 754 756 758 760 762 764 766 769 771 773 776 778 780 782 783 785 787 789 790 791 793 795 796 798 799 800 801 802 803 804 804 805 806 806 807 808 809 810 810 811 811 812 812 813 813 813
724 725 726 727 729 730 732 733 735 736 736 737 738 740 741 743 744 745 747 748 749 750 751 752 754 756 758 760 762 764 766 768 771 773 776 777 780 781 783 785 787 788 790 791 793 795 796 797 799 800 800 801 802 803 803 804 805 806 807 808 808 809 810 810 811 811 811 812 812
721 723 724 726 727 728 730 731 733 734 735 736 737 738 740 741 742 744 745 746 747 748 749 751 752 755 757 759 760 762 764 766 768 771 773 775 777 779 781 783 784 786 788 790 791 793 795 796 797 798 799 800 801 801 802 803 804 804 805 806 807 808 808 809 809 810 810 811 811
720 721 722 723 725 726 728 729 731 732 733 734 736 737 739 740 741 742 743 745 746 746 747 749 751 753 755 757 759 761 762 764 766 769 771 773 775 777 779 780 782 784 786 788 790 791 793 794 795 796 797 798 799 800 801 801 802 803 804 805 806 806 807 808 808 809 809 809 809
718 719 720 721 723 724 726 727 728 730 731 732 734 735 737 738 739 741 742 743 744 745 746 748 750 751 753 756 757 759 761 763 765 767 769 771 773 775 777 779 781 783 785 786 788 790 791 792 793 794 796 797 798 799 799 800 801 802 803 804 805 805 806 806 807 807 807 808 808
717 718 719 720 721 723 724 725 726 727 729 730 731 733 735 736 738 739 740 741 742 744 745 747 748 750 752 754 755 757 759 761 763 765 767 770 772 774 776 777 779 781 783 785 786 788 789 790 791 793 794 795 796 797 798 799 799 800 801 802 803 804 804 805 806 806 806 806 806
716 717 718 719 720 721 722 723 725 726 727 728 730 731 733 735 736 737 738 739 741 742 744 746 747 749 751 752 754 756 757 759 761 764 766 768 770 772 774 776 778 780 782 783 785 786 787 789 790 791 792 794 795 796 796 797 798 799 800 801 801 802 803 803 804 805 805 805 805
715 716 717 718 719 720 721 722 723 724 725 726 728 730 731 733 734 736 736 738 739 741 742 744 746 748 749 751 752 754 756 758 760 762 764 766 768 771 772 775 776 778 780 782 783 785 786 787 789 790 791 792 793 794 795 796 797 797 798 799 800 801 801 802 803 803 803 803 804
714 715 716 716 717 718 719 720 721 722 723 725 726 728 730 731 732 733 735 736 738 740 741 742 744 746 748 750 751 753 755 757 759 761 763 765 767 769 771 773 775 777 779 780 782 783 785 786 787 789 790 791 792 793 794 795 796 796 797 798 799 799 800 801 801 801 802 802 802
713 713 714 715 716 716 717 718 719 720 721 723 724 726 727 729 731 731 733 734 736 738 739 741 742 745 746 749 751 752 754 756 758 760 762 764 766 767 770 771 773 775 777 779 780 782 783 785 786 787 789 790 791 792 793 793 794 795 796 796 797 798 799 799 800 800 800 801 801
711 712 713 713 714 715 715 716 717 718 720 721 722 724 725 727 728 729 731 732 734 736 737 739 741 743 745 746 749 751 752 754 756 758 760 762 764 766 768 770 772 774 776 777 779 780 782 783 785 786 788 789 790 791 791 792 793 794 794 795 796 796 797 798 798 798 799 799 799
710 711 711 712 712 713 714 715 716 717 718 719 721 722 723 725 726 727 729 731 732 734 736 737 739 741 743 744 746 748 750 752 754 756 759 761 763 765 767 769 771 773 775 776 777 779 781 782 784 785 786 787 788 789 790 791 792 792 793 794 795 795 796 796 796 797 797 797 797
709 709 710 710 711 711 712 713 714 716 716 718 719 720 721 723 724 726 727 729 731 732 734 736 738 739 741 743 744 746 749 751 753 755 757 760 761 764 766 768 770 771 773 775 776 778 780 781 782 784 785 786 787 788 789 790 790 791 792 792 793 794 794 795 795 795 796 796 796
708 708 708 709 709 710 711 712 713 714 715 716 717 718 719 721 722 723 725 726 729 731 732 734 736 737 739 741 743 745 747 749 751 754 756 758 760 762 764 766 768 770 772 774 775 777 778 780 781 782 784 785 786 787 787 788 789 790 791 791 792 792 793 793 794 794 794 794 794
706 706 707 707 708 709 710 711 712 713 714 715 716 717 718 719 720 722 723 725 727 729 731 732 734 736 737 739 741 743 745 748 750 752 754 757 759 761 763 765 767 769 771 772 774 776 777 778 780 781 782 783 784 785 786 787 788 789 789 790 791 791 791 792 792 792 792 793 793
705 705 706 706 706 707 708 710 711 711 712 713 714 716 716 718 719 720 722 724 726 727 729 731 733 734 735 737 739 741 743 746 748 751 753 755 758 760 762 764 766 768 769 771 772 774 776 777 779 780 781 782 783 784 785 786 786 787 788 789 789 790 790 791 791 791 791 791 791
704 704 704 704 705 706 707 708 709 710 711 712 713 714 715 716 718 719 721 722 724 725 727 729 731 733 734 736 738 740 742 744 747 749 752 754 756 759 761 763 765 766 768 769 771 772 774 776 777 778 779 781 781 783 783 784 785 786 787 787 788 788 789 789 789 789 790 790 790
702 702 702 702 703 704 705 706 707 708 710 711 711 713 714 715 716 717 719 720 722 724 726 728 730 731 733 735 737 738 740 742 745 747 750 753 755 757 759 761 763 765 767 768 769 771 772 774 775 776 778 779 780 781 782 783 784 785 786 786 787 787 787 788 788 788 788 788 788
701 700 700 701 701 702 704 705 706 707 708 709 711 711 712 714 715 716 717 719 720 722 724 726 728 730 732 734 736 737 739 741 743 746 748 751 753 756 758 760 762 764 765 766 768 769 771 772 773 775 776 777 779 780 781 782 783 783 784 785 785 786 786 786 786 787 787 787 787
699 698 698 699 700 701 702 703 704 706 707 708 709 710 711 712 714 715 716 717 719 721 723 725 726 728 730 732 734 736 738 740 742 745 746 749 751 754 756 758 760 762 763 764 766 768 769 771 772 774 775 776 777 779 780 781 781 782 783 783 784 784 785 785 785 785 785 786 786
696 696 696 697 698 699 700 701 703 704 706 707 708 709 710 711 712 713 715 716 717 719 721 723 725 726 728 731 732 734 736 739 741 743 746 748 750 752 754 756 758 760 761 763 765 766 768 770 771 772 774 775 776 777 778 779 780 781 781 782 782 783 783 783 784 784 784 784 784
694 694 695 696 696 697 699 700 701 703 704 706 707 708 709 710 711 712 713 714 716 717 719 721 723 725 726 729 731 732 735 737 740 742 744 746 749 751 753 755 756 758 760 761 763 765 767 768 770 771 772 774 775 776 777 778 779 780 780 781 781 781 782 782 782 782 782 782 782
692 692 693 694 695 696 697 698 700 701 703 705 706 707 708 709 710 711 711 713 714 715 716 718 720 722 724 726 728 731 734 736 738 741 743 745 747 749 751 754 755 757 758 760 762 764 766 767 769 770 771 772 774 775 776 777 778 778 779 779 780 780 780 780 780 780 780 780 780
690 691 691 692 693 695 696 697 698 700 701 703 704 705 706 707 708 709 710 711 712 713 715 717 718 720 722 724 727 729 732 734 737 739 741 743 746 748 750 752 754 756 757 759 761 762 764 766 767 769 770 771 772 774 775 776 776 777 777 778 778 778 778 779 779 779 779 779 779
688 689 689 691 691 693 694 696 697 698 700 701 702 704 705 705 706 707 709 710 711 713 714 716 717 719 721 723 725 728 730 732 735 737 740 742 744 747 749 751 753 754 756 757 759 761 763 765 766 767 769 770 771 772 773 774 775 776 776 776 776 777 777 777 777 777 777 777 777
687 687 688 689 690 691 692 694 695 696 698 699 701 702 703 704 705 707 708 709 711 711 712 714 715 717 719 721 724 726 728 731 733 736 738 741 743 746 748 750 751 753 754 756 758 760 761 763 765 766 768 769 770 771 772 773 774 774 775 775 775 775 776 776 776 776 776 776 776
685 686 686 687 688 690 691 692 693 695 696 697 699 700 701 702 704 705 706 708 709 710 711 712 714 716 717 719 721 724 727 729 732 734 737 739 742 744 746 748 750 751 753 755 757 759 760 762 763 765 766 768 769 770 771 772 772 772 773 773 773 774 774 774 775 775 775 775 775
684 685 685 685 686 688 689 690 691 693 694 695 696 698 699 701 702 703 705 706 708 709 711 712 714 716 717 719 721 723 725 728 731 733 736 738 741 743 745 747 748 750 751 753 755 757 759 761 762 764 766 767 768 769 770 770 771 771 771 772 772 772 773 773 773 773 773 773 773
682 683 684 684 685 686 687 689 690 691 692 693 694 696 697 699 700 702 703 705 707 708 710 711 713 715 717 718 720 722 724 726 729 731 734 736 739 741 744 746 747 748 750 752 754 756 758 759 761 763 764 766 767 768 768 769 769 770 770 770 771 771 771 771 772 772 772 772 772
680 681 683 683 684 685 686 687 688 689 690 691 692 694 695 697 698 700 702 704 706 707 708 710 711 713 715 716 718 721 722 725 727 730 733 735 737 740 742 744 746 747 749 751 753 755 756 758 760 761 763 764 766 766 767 768 768 768 769 769 769 770 770 770 770 771 771 771 771
678 679 681 682 682 683 684 685 686 686 688 689 691 692 694 695 697 698 700 702 703 705 706 708 710 711 713 715 717 720 722 724 726 729 731 734 736 738 741 743 745 746 748 750 751 753 755 757 758 760 761 763 764 765 766 766 767 767 767 768 768 768 769 769 769 769 769 769 769
675 676 678 680 681 681 682 683 683 684 686 687 689 691 692 694 695 696 698 700 701 703 705 706 708 710 712 715 717 719 721 724 726 728 730 732 735 737 739 741 743 745 746 748 750 752 754 756 757 759 760 761 763 764 764 765 765 766 766 766 767 767 767 767 767 767 767 767 767
672 673 675 677 679 680 680 681 681 682 684 686 687 689 691 692 693 695 696 698 700 702 704 705 707 709 711 714 716 718 721 723 725 727 729 731 734 736 738 740 742 744 746 747 749 751 753 754 756 757 759 760 761 762 763 764 764 765 765 765 766 766 766 766 766 766 766 766 766
669 670 672 674 676 677 678 678 679 680 682 683 685 687 689 691 692 694 696 697 699 701 702 704 706 708 710 712 715 717 719 722 725 727 729 731 733 736 737 739 741 743 744 746 748 750 751 753 755 756 757 759 760 761 762 762 763 763 764 764 764 764 764 764 765 765 765 765 765